Miscellaneous Local Product
Issued by NWS Hastings, NE

Current Version | Previous Version | Text Only | Print | Product List | Glossary On
Versions: 1 2 3 4 5 6 7 8 9 10 11 12 13 14 15 16 17 18 19 20 21 22 23 24 25 26 27 28 29 30 31 32 33 34 35 36 37 38 39 40 41 42 43 44 45 46 47 48 49 50
000
AXUS43 KGID 220710
MISGRI

GID CWA HOURLY WEATHER ROUNDUP
NATIONAL WEATHER SERVICE HASTINGS NE
200 AM CDT MON SEP 22 2014

NOTE: "FAIR" INDICATES FEW OR NO CLOUDS BELOW 12,000 FEET WITH NO
SIGNIFICANT WEATHER AND/OR OBSTRUCTIONS TO VISIBILITY.

...SOUTH CENTRAL NEBRASKA...

CITY           SKY/WX    TMP DP  RH WIND       PRES   REMARKS
GRAND ISLAND   CLEAR     50  44  80 S3        30.32R
HASTINGS       CLEAR     54  45  71 SE5       30.31S
KEARNEY        PTCLDY    48  41  76 CALM      30.32S
ORD            CLEAR     43  40  89 CALM      30.30S
YORK           CLEAR     48  46  93 CALM      30.31S
AURORA         CLEAR     50  45  84 SE3       30.31R
LEXINGTON      PTCLDY    48  46  91 CALM      30.32R
HOLDREGE       PTCLDY    49  43  81 CALM      30.31S
HEBRON         CLEAR     46  43  90 CALM      30.31R

...NEBRASKA PANHANDLE...

CITY           SKY/WX    TMP DP  RH WIND       PRES   REMARKS
CHADRON        CLEAR     63  40  42 S8        30.20F
ALLIANCE       MOCLDY    52  41  66 S8        30.26F
SCOTTSBLUFF    PTCLDY    57  43  59 E13       30.24F
SIDNEY         PTCLDY    57  40  52 S13       30.29F

...WESTERN AND NORTH CENTRAL NEBRASKA...

CITY           SKY/WX    TMP DP  RH WIND       PRES   REMARKS
VALENTINE      CLEAR     48  40  73 CALM      30.28S
AINSWORTH      CLEAR     43  39  86 S9        30.29S
ONEILL         CLEAR     49  45  87 S3        30.30S
BROKEN BOW     CLEAR     42  39  89 CALM      30.31S
IMPERIAL       CLOUDY    59  41  51 S9        30.30S
NORTH PLATTE   CLOUDY    50  44  80 SE6       30.30F
MCCOOK         MOCLDY    56  44  64 E5        30.30F

...EASTERN NEBRASKA...

CITY           SKY/WX    TMP DP  RH WIND       PRES   REMARKS
NORFOLK        CLEAR     44  42  93 CALM      30.30R
SO SIOUX CITY  CLEAR     47  45  93 W5        30.29R
TEKAMAH        CLEAR     47  44  90 CALM      30.29R
COLUMBUS       CLEAR     46  43  87 CALM      30.31R
ALBION         CLEAR     43  40  89 CALM      30.31R
OMAHA EPPLEY   CLEAR     52  50  93 CALM      30.29R
OFFUTT AFB     CLEAR     48  48 100 NW2       30.29R
MILLARD        CLEAR     51  50  95 CALM      30.29R
LINCOLN        CLEAR     48  45  89 CALM      30.30S
NEBRASKA CITY    N/A     56  42  59 CALM      30.29R
BEATRICE       CLEAR     46  44  94 CALM      30.30R
FALLS CITY     CLEAR     49  47  93 CALM      30.28R

...NORTHERN KANSAS...

CITY           SKY/WX    TMP DP  RH WIND       PRES   REMARKS
GOODLAND       CLOUDY    60  41  49 SE7       30.32S
HILL CITY      MOCLDY    54  43  66 E3        30.30F
NORTON         PTSUNNY   52  39  62 CALM      30.31S
SMITH CENTER   CLEAR     52  43  71 E7        30.31R HAZE
BELOIT         CLEAR     46  46 100 N5        30.29S
RUSSELL        PTCLDY    52  45  77 VRB3      30.28S
CONCORDIA      CLEAR     53  47  79 CALM      30.30S
SALINA         CLEAR     59  46  62 CALM      30.29S
TOPEKA         CLEAR     55  50  83 NE6       30.27S



USA.gov is the U.S. government's official web portal to all federal, state and local government web resources and services.